868  
ASUS43 KFSD 220810  
RWRFSD  
 
WEATHER ROUNDUP FOR SE SOUTH DAKOTA/SW MINNESOTA/NW IOWA  
NATIONAL WEATHER SERVICE SIOUX FALLS SD  
300 AM CDT FRI SEP 22 2017  
 
NOTE: "FAIR" INDICATES FEW OR NO CLOUDS BELOW 12,000 FEET WITH NO  
SIGNIFICANT WEATHER AND OR S TO VISIBILITY
.  
 
 
SDZ038>040-050-052>070-220900-  
SOUTHEAST SOUTH DAKOTA  
 
CITY SKY/WX TMP DP RH WIND PRES REMARKS
 
BROOKINGS CLEAR 74 71 91 SE12 29.72R  
CHAMBERLAIN CLEAR 77 70 78 SE17G26 29.59F  
HURON CLEAR 74 71 91 SE13 29.61F  
MADISON FAIR 75 75 100 S15G23 29.71S  
MITCHELL CLEAR 79 72 79 S12G23 29.64S  
SIOUX FALLS CLEAR 79 73 82 S14 29.72S  
WINNER FAIR 78 64 61 S21 29.59S  
YANKTON CLEAR 80 72 76 S18 29.69S  

 
 
MNZ071-072-080-081-089-090-097-098-220900-  
SOUTHWEST MINNESOTA  
 
CITY SKY/WX TMP DP RH WIND PRES REMARKS
 
FAIRMONT CLEAR 74 70 87 S13 29.82S  
JACKSON PTCLDY 73 68 83 S10 29.82S  
LUVERNE CLEAR 72 70 94 S10 29.76S  
MARSHALL CLEAR 76 72 87 S20G26 29.71F  
MONTEVIDEO CLEAR 72 72 100 S7 29.72S  
PIPESTONE CLEAR 73 72 94 S12G18 29.75F  
REDWOOD FALLS CLEAR 73 69 87 SE9 29.74F  
TRACY CLEAR 76 73 91 S15G21 29.75S  
WORTHINGTON CLEAR 74 71 91 S13G21 29.79F  

 
 
IAZ001>003-012>014-020>022-031-032-NEZ013-014-SDZ071-220900-  
NORTHWEST IOWA  
 
CITY SKY/WX TMP DP RH WIND PRES REMARKS
 
CHEROKEE PTCLDY 76 73 92 S10G16 29.81S  
DENISON PTCLDY 77 72 83 S17G29 29.84S  
ESTHERVILLE CLEAR 73 71 93 S13 29.82S  
LE MARS PTCLDY 79 73 83 S15G25 29.76F  
ORANGE CITY PTCLDY 77 75 94 S10G17 29.79S  
SHELDON CLEAR 75 72 88 S13G21 29.77F  
SIOUX CITY PTCLDY 78 74 87 S12 29.77R  
SPENCER CLEAR 75 71 87 S12 29.81S  
STORM LAKE PTCLDY 75 72 88 S14 29.83S  

 
 
ABBREVIATIONS USED IN REMARKS  
TC - TEMPERATURE IN CELSIUS  
WCI - WIND CHILL INDEX  
HX - HEAT INDEX  
VSB - VISIBILITY  
 
 
 
CLICK HERE TO GO TO PREVIOUS BULLETINS.

The Nexlab SD Page
The Nexlab IA Page
The Nexlab MN Page
The Nexlab NE Page Main Text Page